Погода в Среднеколымске

Погода в Среднеколымске : погода сейчас, прогноз погоды и архив. Всё, что Вы хотите узнать о погоде в Среднеколымске!

Поиск расширенной информации на нашем сайте:

Другие новости

Новости СМИ2

Главная страница сайта

Новости сайта

02.10.2013

Напоминаем, что на нашем новом сайте вы можете получить высокодетализированные прогнозы погоды по пунктам России, СНГ и мира (включающие важные для авиации метеовеличины, такие как направление и скорость ветра, видимость, явления погоды, количество и форма облачности, нижняя и верхняя граница облачности), а также ознакомиться с разнообразными материалами по авиационной метеорологии и подборкой полезных ссылок на эту тему.

Сайт Метеоцентр.Азия посвящён разработке технологий оптимизации авиаметеорологического обслуживания, включая проектирование и перспективное создание нескольких автоматизированных авиаметеорологических систем:
- система выпуска высокодетальных прогностических карт явлений погоды для нижнего воздушного пространства по России и ближнему зарубежью;
- система верификации прогнозов TAF (выпускаемых синоптиками официальных АМСГ РФ и ближнего зарубежья) и AUTOTAF (выпускаемых сайтом Метеоцентр.Азия) - выявление ошибок, онлайн-сопоставление с фактической погодой METAR, автоматическое внесение коррективов в прогнозы при резком отклонении фактической погоды от прогноза, подсчёт оправдываемости прогнозов по элементам и в целом;
- система обработки, анализа и отображения авиаметеорологической информации для применения провайдерами метеорологической информации.

Рекомендуем: Смотрите описание strategic-broker.com у нас.

Погода в Среднеколымске - сегодня

Время (UTC), дата Ветер
(°,м/с) 
Видим.   Явления Облачность Т
(°С)
Тd
(°С)
f(%) Тe
(°С)
Pmin
(гПа)
dP
(гПа)
Po
(мм)
O2
(г/м3)
Тmin Tmax R s Состояние
почвы
00 28.03.17 тихо ()   20000 м    8/0 верхняя 
[Ci fib]
-7.2 -13 63 -7  1011.1  -0.3  755  314           
03 28.03.17 тихо ()   20000 м    9/0 верхняя 
[Ci fib]
-1.7 -13.1 41 -2  1010.3  -0.7  755  307           
06 28.03.17 100 (В) 20000 м    9/0 верхняя 
[Ci fib]
-1 -10.7 48 1010  -0.3  755  306           
09 28.03.17 180 (Ю) 20000 м    9/0 верхняя 
[Ci fib]
-3.5 -14.9 41 -3  1011.3  1.2  755  310    -0.4       
12 28.03.17 150 (ЮВ) 20000 м    ясно 
-10.7 -16 65 -13  1013.8  2.4  757  319           
15 28.03.17 320 (СЗ) 20000 м    ясно 
-19.7 -23 75 -22  1016.2  2.3  759  331           
18 28.03.17 340 (С) 20000 м  слаб. снег  10/0 средняя, верхняя 
[Ac trans|Cs]
-11.2 -14 80 -13  1019.6  3.5  762  321           
21 28.03.17 350 (С) 20000 м  слаб. снег  10/0 средняя, верхняя 
[Ac trans|Cs]
-13.2 -17.5 70 -17  1022.1  2.4  763  325  -19.8    0.0  81  равномерный
сухой снег
100% 
00 29.03.17 290 (З) 20000 м  {снег}  8/0 верхняя 
[Ci fib]
-11.7 -16.1 70 -14  1023.3  1.3  764  323           
03 29.03.17 270 (З) 20000 м    6/0 верхняя 
[Ci fib]
-9 -15.7 58 -9  1023.2  -0.1  764  320           
06 29.03.17 070 (В) 20000 м    6/0 верхняя 
[Ci fib]
-7.4 -15.7 51 -7  1023  -0.1  764  318           
09 29.03.17 060 (СВ) 20000 м    8/0 верхняя 
[Ci fib]
-10.3 -15.6 65 -10  1023.4  0.3  764  321    -7       
12 29.03.17 080 (В) 20000 м    ясно 
-17.1 -20.5 75 -17  1022.7  -0.8  764  330           
15 29.03.17 070 (В) 20000 м    ясно 
-23.4 -25.9 80 -24  1021.7  -1.2  763  338           
18 29.03.17 080 (В) 20000 м    ясно 
-23.3 -25.8 80 -26  1020.5  -1.2  762  338           
21 29.03.17 тихо ()   20000 м    ясно 
-23.6 -26.3 78 -24  1020  -0.5  762  338  -27.6      80  равномерный
сухой снег
100% 
00 30.03.17 тихо ()   20000 м    ясно 
-12.1 -15.6 75 -12  1019  -0.7  761  322           
03 30.03.17 260 (З) 20000 м    ясно 
-5.7 -13.4 55 -5  1017.3  -1.6  760  314           
06 30.03.17 130 (ЮВ) 20000 м    ясно 
-3.3 -12.2 50 -3  1015.7  -1.6  759  311           
09 30.03.17 090 (В) 20000 м    ясно 
-7 -15 53 -8  1014.8  -0.9  758  315    -3.3       
12 30.03.17 110 (В) 20000 м    ясно 
-10.8 -16.1 65 -14  1013.5  -1.4  757  319           
15 30.03.17 140 (ЮВ) 20000 м    ясно 
-16.3 -19.7 75 -19  1011.9  -1.7  756  325           
18 30.03.17 130 (ЮВ) 20000 м    ясно 
-14.9 -17.6 80 -17  1010.4  -1.5  755  323           
21 30.03.17 150 (ЮВ) 20000 м    ясно 
-13.8 -17.3 75 -14  1008.8  -1.6  753  321  -18.9      79  равномерный
сухой снег
100% 
00 31.03.17 170 (Ю) 20000 м    ясно 
-5.6 -13.8 52 -7  1006.5  -2.1  752  311           
Время (UTC), дата Ветер
(°,м/с) 
Видим.   Явления Облачность Т
(°С)
Тd
(°С)
f(%) Тe
(°С)
Pmin
(гПа)
dP
(гПа)
Po
(мм)
O2
(г/м3)
Тmin Tmax R s Состояние
почвы

Для получения пояснительной информации подведите курсор к названию столбца.

ПОГОДА в Среднеколымске - архив

Всё, что Вы хотите узнать о погоде в Среднеколымске - удобно и подробно!

Выберите нужную дату (начиная с 1 января 2015* года) и нажмите кнопку "Найти".
Будут отображены архивные сводки погоды по пункту Среднеколымск, начиная с указанной даты.


Отображать данные в формате CSV (для использования в таблицах Excel)


Внимание! Наш архив погоды предназначен исключительно для личного некоммерческого использования в познавательных целях. Если Вам необходимы официальные справки о состоянии погоды (для производственных, юридических, коммерческих и т.п. целей), обращайтесь в органы Росгидромета.

*Примечание: данная дата относится к архиву по метеостанциям СССР (Россия, СНГ, Балтия).
Архив по метеостанциям Зарубежной Европы и Азии (кроме Китая) хранится 10 дней, по другим регионам земного шара (Китай, Африка, Америка, Австралия, Океания) - 1 день.

Среднеколымск - район местоположения метеостанции


Название, широта, долгота, высота метеостанции:
Среднеколымск 67.45°ш. 153°д. 21 м над ур. моря [Российская Федерация]

Дополнительная информация

В oтличие oт бoльшинства пoгoдных сайтoв мы публикуем пoдрoбную метеoинфoрмацию в детальнoм прoфессиoнальнoм фoрмате.

Характеристики температуры и влажнoсти вoздуха измеряются на высoте 2 м в тени вдали oт зданий и деревьев.
Скoрoсть ветра измеряется на высoте 10 м (на урoвне рoста челoвека скoрoсть ветра ниже в 1.5-2 раза). Если метеoстанция нахoдится в гoрoде или в лесу, тo скoрoсть ветра занижена на 2-4 м/с пo сравнению с oткрытым местoм. Скoрoсть ветра над акватoриями крупных рек и oзёр, а также на вершинах хoлмoв на 2-5 м/с выше, чем в oбычных услoвиях.
Атмoсфернoе давление в разных тoчках местнoсти мoжет значительнo oтличаться oт давления на метеoстанции, в зависимoсти oт услoвий рельефа (при пoдъёме на 10 м давление пoнижается примернo на 1 мм рт.ст.).